Location: Arthez
(43.0833°N, 0.2500°W)
Time: 03:49:44
(UTC+00:00)

CSL-04 Debris - Pass Details

Date: 23 October 2021
Orbit: 827 x 847 km, 98.9° (Epoch: 27 November)

Event Time Altitude Azimuth Distance (km) Brightness Sun altitude
Exits shadow 19:00:04 43° 119° (ESE) 1,161 4.5 -21.6°
Maximum altitude 19:01:30 55° 71° (ENE) 992 4.2 -21.8°
Drops below altitude 10° 19:06:47 10° 354° (N) 2,452 6.7 -22.8°
Sets 19:09:11 0° 351° (N) 3,393 7.5 -23.2°
